Niagara Falls, NY

12:49 AM EDT on August 26, 2016 (GMT -0400)
Niagara Falls International

Weather History for KIAG - February, 2013

Change the Weather History Date:

Wednesday, February 13, 2013

  Actual Average Record
Temperature  
Mean Temperature 28 °F -  
Max Temperature 34 °F 31 °F 59 °F (1990)
Min Temperature 21 °F 17 °F -9 °F (2015)
Degree Days  
Heating Degree Days 38    
Moisture  
Dew Point 21 °F    
Average Humidity 71    
Maximum Humidity 85    
Minimum Humidity 56    
Precipitation  
Precipitation 0.00 in - - ()
Snow  
Snow 0.00 in - - ()
Snow Depth 1.00 in    
Sea Level Pressure  
Sea Level Pressure 29.85 in    
Wind  
Wind Speed 5 mph (WSW)    
Max Wind Speed 9 mph    
Max Gust Speed -    
Visibility 10 miles    
Events      
Averages and records for this station are not official NWS values.
T = Trace of Precipitation, MM = Missing Value Source: NWS Daily Summary

Daily Weather History Graph

Daily Weather History Graph

Search for Another Location

Airport or City:

Trip Planner

Search our weather history database for the weather conditions in past years. The results will help you decide how hot, cold, wet, or windy it might be!

Date:

Astronomy

Feb. 13, 2013 Rise Set
Actual Time 7:15 AM EST 5:44 PM EST
Civil Twilight 6:46 AM EST 6:13 PM EST
Nautical Twilight 6:13 AM EST 6:47 PM EST
Astronomical Twilight 5:40 AM EST 7:20 PM EST
Moon 8:37 AM EST (2/13) 9:53 PM EST (2/13)
Length of Visible Light 11h 27m
Length of Day
10h 28m
Waxing Crescent, 13% of the Moon is Illuminated
Feb 13
Waxing Crescent
Feb 17
First Quarter
Feb 25
Full
Mar 4
Last Quarter
Mar 11
New

Hourly Weather History & Observations

Time (EST) Temp. Windchill Dew Point Humidity Pressure Visibility Wind Dir Wind Speed Gust Speed Precip Events Conditions
12:04 AM 30.2 °F 22.6 °F 23.0 °F 75% 29.89 in 10.0 mi WSW 8.1 mph - N/A   Overcast
12:53 AM 30.0 °F 22.4 °F 21.9 °F 72% 29.93 in 10.0 mi SW 8.1 mph - N/A   Overcast
1:53 AM 30.0 °F 23.2 °F 21.0 °F 69% 29.93 in 10.0 mi West 6.9 mph - N/A   Overcast
2:53 AM 30.0 °F 24.1 °F 21.9 °F 72% 29.92 in 10.0 mi SW 5.8 mph - N/A   Overcast
3:53 AM 30.0 °F 25.2 °F 21.9 °F 72% 29.90 in 10.0 mi SW 4.6 mph - N/A   Overcast
4:53 AM 30.0 °F 26.5 °F 23.0 °F 75% 29.89 in 10.0 mi SW 3.5 mph - N/A   Overcast
5:53 AM 30.0 °F 26.5 °F 23.0 °F 75% 29.89 in 10.0 mi SW 3.5 mph - N/A   Overcast
6:53 AM 30.0 °F 25.2 °F 21.9 °F 72% 29.88 in 10.0 mi West 4.6 mph - N/A   Overcast
7:03 AM 30.2 °F 26.7 °F 21.2 °F 69% 29.84 in 10.0 mi West 3.5 mph - N/A   Overcast
7:53 AM 30.0 °F 24.1 °F 21.9 °F 72% 29.88 in 7.0 mi West 5.8 mph - N/A   Overcast
8:53 AM 30.0 °F 23.2 °F 21.0 °F 69% 29.88 in 7.0 mi WNW 6.9 mph - N/A   Mostly Cloudy
9:53 AM 30.0 °F 26.5 °F 19.9 °F 66% 29.86 in 10.0 mi West 3.5 mph - N/A   Scattered Clouds
10:53 AM 30.9 °F 27.5 °F 19.9 °F 64% 29.85 in 7.0 mi WNW 3.5 mph - N/A   Mostly Cloudy
11:53 AM 32.0 °F 25.6 °F 21.0 °F 64% 29.83 in 10.0 mi West 6.9 mph - N/A   Mostly Cloudy
12:53 PM 32.0 °F 24.2 °F 21.0 °F 64% 29.81 in 10.0 mi West 9.2 mph - N/A   Mostly Cloudy
1:53 PM 33.1 °F 28.7 °F 19.9 °F 59% 29.79 in 10.0 mi SW 4.6 mph - N/A   Scattered Clouds
2:53 PM 34.0 °F - 19.9 °F 56% 29.77 in 10.0 mi Calm Calm - N/A   Scattered Clouds
3:53 PM 33.1 °F 27.7 °F 21.0 °F 61% 29.78 in 10.0 mi NW 5.8 mph - N/A   Scattered Clouds
4:53 PM 32.0 °F 26.4 °F 21.9 °F 66% 29.77 in 10.0 mi NNW 5.8 mph - N/A   Mostly Cloudy
5:53 PM 30.0 °F - 21.0 °F 69% 29.78 in 10.0 mi Calm Calm - N/A   Scattered Clouds
6:53 PM 28.0 °F - 19.9 °F 72% 29.80 in 10.0 mi Calm Calm - N/A   Partly Cloudy
7:53 PM 26.1 °F - 19.9 °F 78% 29.81 in 10.0 mi Calm Calm - N/A   Partly Cloudy
8:53 PM 24.1 °F - 19.0 °F 81% 29.81 in 10.0 mi Calm Calm - N/A   Partly Cloudy
9:53 PM 21.9 °F - 18.0 °F 85% 29.83 in 10.0 mi Calm Calm - N/A   Clear
10:53 PM 21.0 °F - 17.1 °F 85% 29.84 in 10.0 mi Calm Calm - N/A   Partly Cloudy
11:53 PM 21.9 °F - 17.1 °F 82% 29.85 in 5.0 mi Calm Calm - N/A   Haze